Weather History for Evansville, IN

Change the Weather History Date:

Tuesday, April 30, 2013

  Actual Average Record
Temperature  
Mean Temperature 66 °F 61 °F  
Max Temperature 82 °F 72 °F 89 °F (1942)
Min Temperature 50 °F 49 °F 33 °F (1969)
Degree Days  
Heating Degree Days 0 5  
Month to date heating degree days 304 288  
Since 1 July heating degree days 4448 4455  
Cooling Degree Days 1 1  
Month to date cooling degree days 34 24  
Year to date cooling degree days 34 27  
Growing Degree Days 16 (Base 50)    
Moisture  
Dew Point 52 °F    
Average Humidity 64    
Maximum Humidity 89    
Minimum Humidity 39    
Precipitation  
Precipitation 0.00 in 0.17 in 2.26 in (1983)
Month to date precipitation 3.86 4.37  
Year to date precipitation 17.47 14.88  
Snow  
Snow 0.00 in 0.00 in - ()
Month to date snowfall 0.0 0.1  
Since 1 July snowfall 12.3 11.8  
Snow Depth 0.00 in    
Sea Level Pressure  
Sea Level Pressure 29.97 in    
Wind  
Wind Speed 4 mph (SE)    
Max Wind Speed 12 mph    
Max Gust Speed 17 mph    
Visibility 10 miles    
Events      
T = Trace of Precipitation, MM = Missing Value Source: NWS Daily Summary

Daily Weather History Graph

Daily Weather History Graph

Search for Another Location

Airport:

Trip Planner

Search our weather history database for the weather conditions in past years. The results will help you decide how hot, cold, wet, or windy it might be!

Date:

Astronomy

Apr. 30, 2013 Rise Set
Actual Time 5:54 AM CDT 7:40 PM CDT
Civil Twilight 5:26 AM CDT 8:08 PM CDT
Nautical Twilight 4:52 AM CDT 8:43 PM CDT
Astronomical Twilight 4:15 AM CDT 9:19 PM CDT
Moon 12:02 AM CDT (4/30) 10:24 AM CDT (4/30)
Length of Visible Light 14h 42m
Length of Day
13h 45m
Waning Gibbous, 70% of the Moon is Illuminated
Apr 30
Waning Gibbous
May 2
Last Quarter
May 9
New
May 17
First Quarter
May 24
Full

Hourly Weather History & Observations

Time (CDT) Temp. Heat Index Dew Point Humidity Pressure Visibility Wind Dir Wind Speed Gust Speed Precip Events Conditions
12:54 AM 59.0 °F - 51.1 °F 75% 29.93 in 10.0 mi SSE 4.6 mph - N/A   Clear
1:54 AM 57.0 °F - 50.0 °F 77% 29.92 in 10.0 mi Calm Calm - N/A   Clear
2:54 AM 54.0 °F - 50.0 °F 86% 29.92 in 10.0 mi Calm Calm - N/A   Clear
3:54 AM 51.1 °F - 48.0 °F 89% 29.93 in 10.0 mi ENE 3.5 mph - N/A   Clear
4:54 AM 51.1 °F - 46.9 °F 86% 29.93 in 10.0 mi Calm Calm - N/A   Clear
5:54 AM 52.0 °F - 48.0 °F 86% 29.95 in 10.0 mi NE 3.5 mph - N/A   Clear
6:54 AM 54.0 °F - 50.0 °F 86% 29.98 in 9.0 mi Calm Calm - N/A   Clear
7:54 AM 61.0 °F - 52.0 °F 72% 29.99 in 10.0 mi SE 3.5 mph - N/A   Clear
8:54 AM 66.0 °F - 53.1 °F 63% 30.00 in 10.0 mi Variable 4.6 mph - N/A   Clear
9:54 AM 71.1 °F - 55.9 °F 59% 30.00 in 10.0 mi SSW 5.8 mph - N/A   Clear
10:54 AM 75.0 °F - 55.0 °F 50% 30.00 in 10.0 mi South 6.9 mph - N/A   Clear
11:54 AM 77.0 °F - 55.0 °F 47% 29.98 in 10.0 mi South 10.4 mph - N/A   Clear
12:54 PM 79.0 °F - 54.0 °F 42% 29.96 in 10.0 mi South 5.8 mph - N/A   Clear
1:54 PM 80.1 °F 80.1 °F 55.0 °F 42% 29.95 in 10.0 mi South 6.9 mph - N/A   Clear
2:54 PM 81.0 °F 81.0 °F 57.0 °F 44% 29.94 in 10.0 mi SE 9.2 mph - N/A   Clear
3:54 PM 81.0 °F 80.8 °F 55.9 °F 42% 29.94 in 10.0 mi ESE 6.9 mph - N/A   Clear
4:54 PM 81.0 °F 80.7 °F 55.0 °F 41% 29.95 in 10.0 mi SE 5.8 mph - N/A   Clear
5:54 PM 80.1 °F 79.9 °F 53.1 °F 39% 29.95 in 10.0 mi SE 8.1 mph - N/A   Clear
6:54 PM 78.1 °F - 52.0 °F 40% 29.96 in 10.0 mi SSE 6.9 mph - N/A   Clear
7:54 PM 75.0 °F - 53.1 °F 46% 29.97 in 10.0 mi Calm Calm - N/A   Clear
8:54 PM 69.8 °F - 53.6 °F 56% 29.99 in 10.0 mi Calm Calm - N/A   Clear
9:54 PM 70.0 °F - 51.1 °F 51% 30.01 in 10.0 mi Calm Calm - N/A   Clear
10:54 PM 62.1 °F - 53.1 °F 72% 30.02 in 10.0 mi Calm Calm - N/A   Clear
11:54 PM 60.8 °F - 53.6 °F 77% 30.02 in 10.0 mi Calm Calm - N/A   Clear